Location: Unspecified
(0.0000°N, 0.0000°E)
Time: 17:00:58
(UTC+00:00)

STARLINK-36996 - Pass Details

Date: 04 March 2026
Orbit: 264 x 265 km, 53.2° (Epoch: 6 March)

Event Time Altitude Azimuth Distance (km) Brightness Sun altitude
Rises 19:01:10 0° 218° (SW) 1,827 6.0 -12.3°
Reaches altitude 10° 19:03:02 10° 221° (SW) 1,029 4.7 -12.8°
Maximum altitude 19:05:17 63° 303° (WNW) 289 1.4 -13.3°
Enters shadow 19:06:36 21° 21° (NNE) 649 2.7 -13.7°
